Flag for Brazil Weather past 2 weeks in Fortaleza, Ceará, Brazil

Now
81 °F

Passing clouds.


Feels Like: 85 °F
Forecast: 79 / 87 °F
Wind: 13 mph from East

Location: Fortaleza Aeropor-To

Current Time: Feb 1, 2015 at 11:07:33 PM

Latest Report: Feb 1, 2015 at 10:00 PM


Visibility: N/A

Pressure: 29.92 "Hg

Humidity: 74%

Dew point: 72 °F

Location of FortalezaLocation

Historic Weather in Fortaleza — Graph

°F

Fortaleza temperature yesterday

Maximum temperature yesterday: 88 °F (at 12:00 PM)
Minimum temperature yesterday: 77 °F (at 3:00 AM)
Average temperature yesterday: 82 °F

Past Weeks' High & Low Weather Summary

 TemperatureHumidityPressure
High88 °F (Jan 21, 1:00 PM)84% (Jan 18, 3:00 AM)30.45 "Hg (Jan 18, 3:00 AM)
Low77 °F (Jan 20, 3:00 AM)40% (Jan 26, 2:00 PM)29.80 "Hg (Jan 20, 3:00 PM)
Average82 °F67%29.89 "Hg
* Reported Jan 17 10:00 PM — Feb 1 10:00 PM, Fortaleza, Weather by CustomWeather, © 2014

Note: Actual official high and low records may vary slightly from our data, if they occured in-between our weather recording intervals... More about our weather records

Advertising

Fortaleza weather history for previous 24 hours

 ConditionsComfort  
Time TempWeatherWind HumidityBarometerVisibility
10:00 PM
Feb 1
81 °FPassing clouds.13 mph74%29.92 "HgN/A
9:00 PM81 °FPassing clouds.13 mph74%29.92 "HgN/A
8:00 PM81 °FPassing clouds.8 mph79%29.89 "HgN/A
7:00 PM81 °FPassing clouds.9 mph74%29.86 "HgN/A
6:00 PM82 °FPassing clouds.10 mph70%29.86 "HgN/A
5:00 PM84 °FScattered clouds.12 mph66%29.86 "HgN/A
4:00 PM84 °FScattered clouds.14 mph62%29.83 "HgN/A
3:00 PM86 °FScattered clouds.14 mph59%29.83 "HgN/A
2:00 PM88 °FPassing clouds.18 mph52%29.86 "HgN/A
1:00 PM86 °FPartly sunny.21 mph55%29.86 "HgN/A
12:00 PM88 °FScattered clouds.18 mph55%29.89 "HgN/A
11:00 AM88 °FScattered clouds.21 mph55%29.92 "HgN/A
10:00 AM86 °FPartly sunny.21 mph59%29.92 "HgN/A
9:00 AM86 °FPartly sunny.18 mph59%29.92 "HgN/A
8:00 AM82 °FPartly sunny.18 mph66%29.89 "HgN/A
7:00 AM81 °FPartly sunny.15 mph74%29.89 "HgN/A
6:00 AM81 °FPartly sunny.10 mph74%29.86 "HgN/A
5:00 AM81 °FPassing clouds.10 mph74%29.86 "HgN/A
4:00 AM81 °FPassing clouds.12 mph70%29.86 "HgN/A
3:00 AM81 °FPassing clouds.10 mph70%29.86 "HgN/A
2:00 AM81 °FPassing clouds.13 mph74%29.86 "HgN/A
1:00 AM81 °FPassing clouds.12 mph74%29.86 "HgN/A
12:00 AM81 °FPassing clouds.13 mph74%29.86 "HgN/A
11:00 PM
Jan 31
81 °FPassing clouds.12 mph74%29.89 "HgN/A
Weather by CustomWeather, © 2014

See weather overviewHow to use our weather pages